Weather History For Prescott AZ
This page updates 5 minutes after midnight. GMT -7
Station: KPRC0 Rows: 26
| Year | Date | Temp (°F) | Tmin (°F) | Tmax (°F) | RH% | Prcp | Snow | Wind | Gust | Pres | Sun | Cloud |
|---|---|---|---|---|---|---|---|---|---|---|---|---|
| 2000 | 2000-05-06 | 67.8 | 54.0 | 79.0 | 23 | — | — | 19.5 | — | 29.83 | — | 3 |
| 2001 | 2001-05-06 | 64.0 | 46.0 | 78.1 | 22 | — | — | 14.9 | — | 29.92 | — | 0 |
| 2002 | 2002-05-06 | 62.4 | 44.6 | 78.8 | 21 | — | — | 12.4 | — | 29.87 | — | 0 |
| 2003 | 2003-05-06 | 56.7 | — | — | 36 | — | — | 15.2 | — | 29.75 | — | 0 |
| 2004 | 2004-05-06 | 66.6 | 51.8 | 80.6 | 21 | — | — | 15.0 | — | 29.97 | — | 0 |
| 2005 | 2005-05-06 | 52.2 | 45.0 | 57.9 | 49 | — | — | 21.0 | — | 29.79 | — | 3 |
| 2006 | 2006-05-06 | 58.6 | 39.9 | 73.0 | 34 | 0.0 | — | 11.9 | — | 29.85 | — | 0 |
| 2007 | 2007-05-06 | 52.2 | 36.0 | 66.9 | 27 | 0.0 | — | 7.9 | — | 29.87 | — | 2 |
| 2008 | 2008-05-06 | 54.7 | 45.0 | 63.0 | 46 | — | — | 9.5 | — | 29.78 | — | 5 |
| 2009 | 2009-05-06 | 69.1 | 50.0 | 84.9 | 28 | 0.0 | — | 9.7 | — | 29.87 | — | 0 |
| 2010 | 2010-05-06 | 64.4 | 52.0 | 75.0 | 22 | 0.0 | — | 17.2 | — | 29.76 | — | 0 |
| 2011 | 2011-05-06 | 65.8 | 46.9 | 82.9 | 18 | 0.0 | — | 11.7 | — | 29.85 | — | 0 |
| 2012 | 2012-05-06 | 58.8 | 43.0 | 71.1 | 20 | 0.0 | — | 10.1 | — | 29.86 | — | 0 |
| 2013 | 2013-05-06 | 57.9 | 50.0 | 64.9 | 37 | — | — | 17.3 | — | 29.84 | — | — |
| 2014 | 2014-05-06 | 57.6 | 43.0 | 64.0 | 24 | 0.0 | — | 22.0 | — | 29.61 | — | 0 |
| 2015 | 2015-05-06 | 58.1 | 46.0 | 68.0 | 41 | 0.0 | — | 14.7 | — | 29.74 | — | 1 |
| 2016 | 2016-05-06 | 53.4 | 42.1 | 63.0 | 46 | — | — | 20.1 | — | 29.73 | — | — |
| 2017 | 2017-05-06 | 68.0 | 55.9 | 75.9 | 23 | 0.0 | — | 23.9 | — | 29.61 | — | 1 |
| 2018 | 2018-05-06 | 69.3 | 51.1 | 87.1 | 21 | 0.0 | — | 10.3 | — | 29.96 | — | 0 |
| 2019 | 2019-05-06 | 57.6 | 44.1 | 70.0 | 34 | 0.0 | — | 17.2 | — | 29.74 | — | 0 |
| 2020 | 2020-05-06 | 68.4 | 48.9 | 86.0 | 21 | 0.0 | — | 13.1 | — | 29.92 | — | 0 |
| 2021 | 2021-05-06 | 68.4 | 51.1 | 84.0 | 22 | 0.0 | — | 11.8 | — | 29.94 | — | 0 |
| 2022 | 2022-05-06 | 66.6 | 48.9 | 81.0 | 22 | 0.0 | — | 13.2 | — | 29.88 | — | 0 |
| 2023 | 2023-05-06 | 53.8 | 36.0 | 66.9 | 38 | 0.0 | — | 16.3 | — | 29.92 | — | 0 |
| 2024 | 2024-05-06 | 52.5 | 33.1 | 68.0 | 29 | 0.0 | — | 13.3 | — | 29.86 | — | 0 |
| 2025 | 2025-05-06 | 49.3 | 45.0 | 59.0 | 85 | 12.0 | — | 11.8 | — | 29.86 | — | 6 |